Montreal-Pierre Elliott T, Canada

4:42 AM EST on February 14, 2016 (GMT -0500)
Montreal International (Dorval)

Weather History for CYUL - July, 2012

Change the Weather History Date:

Tuesday, July 24, 2012

  Actual Average Record
Temperature  
Mean Temperature 70 °F -  
Max Temperature 77 °F 76 °F - (-1)
Min Temperature 64 °F 60 °F - (-1)
Cooling Degree Days 6    
Growing Degree Days 20 (Base 50)    
Moisture  
Dew Point 60 °F    
Average Humidity 72    
Maximum Humidity 100    
Minimum Humidity 42    
Precipitation  
Precipitation 0.00 in - - ()
Sea Level Pressure  
Sea Level Pressure 29.66 in    
Wind  
Wind Speed 7 mph ()    
Max Wind Speed 18 mph    
Max Gust Speed 21 mph    
Visibility 14.6 miles    
Events Rain    
Averages and records for this station are not official NWS values.
T = Trace of Precipitation, MM = Missing Value Source: Averaged Metar Reports

Daily Weather History Graph

Daily Weather History Graph

Search for Another Location

Airport or City:

Trip Planner

Search our weather history database for the weather conditions in past years. The results will help you decide how hot, cold, wet, or windy it might be!

Date:

Astronomy

Jul. 24, 2012 Rise Set
Actual Time 5:30 AM EDT 8:31 PM EDT
Civil Twilight 4:55 AM EDT 9:06 PM EDT
Nautical Twilight 4:10 AM EDT 9:51 PM EDT
Astronomical Twilight 3:15 AM EDT 10:45 PM EDT
Moon 11:46 AM EDT (7/24) 10:55 PM EDT (7/24)
Length of Visible Light 16h 11m
Length of Day
15h 01m
Waxing Crescent, 31% of the Moon is Illuminated
Jul 24
Waxing Crescent
Jul 26
First Quarter
Aug 1
Full
Aug 9
Last Quarter
Aug 17
New

Hourly Weather History & Observations

Time (EDT) Temp. Dew Point Humidity Pressure Visibility Wind Dir Wind Speed Gust Speed Precip Events Conditions
12:00 AM 68.0 °F 66.2 °F 94% 29.64 in 15.0 mi South 6.9 mph - N/A   Overcast
12:19 AM 68.0 °F - N/A% - 15.0 mi SE 4.6 mph - N/A Rain Light Rain Showers
1:00 AM 66.2 °F 64.4 °F 94% 29.61 in 15.0 mi South 3.5 mph - N/A   Overcast
1:17 AM 66.2 °F - N/A% - 15.0 mi SSW 4.6 mph - N/A Rain Light Rain Showers
1:55 AM 66.2 °F - N/A% - 15.0 mi SW 4.6 mph - N/A   Overcast
2:00 AM 67 °F 65 °F 91% 29.59 in 15 mi SSW 5.8 mph - - Rain Light Rain Showers
2:00 AM 66.2 °F 64.4 °F 94% 29.59 in 15.0 mi SSW 6.9 mph - N/A   Mostly Cloudy
3:00 AM 66.2 °F 64.4 °F 94% 29.58 in 15.0 mi Calm Calm - N/A   Overcast
4:00 AM 64.4 °F 64.4 °F 100% 29.58 in 15.0 mi WNW 2.3 mph - N/A   Partly Cloudy
4:51 AM 66.2 °F - N/A% - 10.0 mi NW 4.6 mph - N/A   Mostly Cloudy
5:00 AM 66.2 °F 66.2 °F 100% 29.58 in 10.0 mi NW 4.6 mph - N/A   Mostly Cloudy
6:00 AM 68.0 °F 66.2 °F 94% 29.59 in 15.0 mi WSW 3.5 mph - N/A   Mostly Cloudy
7:00 AM 69.8 °F 66.2 °F 88% 29.60 in 15.0 mi West 4.6 mph - N/A   Partly Cloudy
8:00 AM 71 °F 67 °F 82% 29.62 in 15 mi WNW 8.1 mph - -   Scattered Clouds
8:00 AM 71.6 °F 66.2 °F 83% 29.62 in 15.0 mi WNW 8.1 mph - N/A   Partly Cloudy
9:00 AM 73.4 °F 66.2 °F 78% 29.63 in 15.0 mi NW 8.1 mph - N/A   Scattered Clouds
10:00 AM 75.2 °F 64.4 °F 69% 29.64 in 15.0 mi NNW 11.5 mph 18.4 mph N/A   Mostly Cloudy
11:00 AM 75.2 °F 60.8 °F 61% 29.65 in 15.0 mi North 11.5 mph - N/A   Mostly Cloudy
12:00 PM 73.4 °F 62.6 °F 69% 29.65 in 15.0 mi WNW 10.4 mph - N/A   Overcast
1:00 PM 75.2 °F 62.6 °F 65% 29.65 in 15.0 mi NW 13.8 mph 19.6 mph N/A   Mostly Cloudy
2:00 PM 75 °F 58 °F 46% 29.67 in 15 mi NW 16.1 mph - -   Scattered Clouds
2:00 PM 75.2 °F 59.0 °F 57% 29.67 in 15.0 mi NNW 18.4 mph - N/A   Scattered Clouds
4:00 PM 73.4 °F 50.0 °F 44% 29.70 in 30.0 mi NNW 15.0 mph - N/A   Mostly Cloudy
5:00 PM 75.2 °F 53.6 °F 47% 29.70 in 30.0 mi NW 12.7 mph 18.4 mph N/A   Mostly Cloudy
6:00 PM 73.4 °F 53.6 °F 50% 29.72 in 30.0 mi NW 15.0 mph 20.7 mph N/A   Mostly Cloudy
7:00 PM 71.6 °F 53.6 °F 53% 29.73 in 15.0 mi NW 9.2 mph - N/A   Mostly Cloudy
8:00 PM 71 °F 53 °F 42% 29.75 in 15 mi NW 10.4 mph - -   Partly Cloudy
8:00 PM 69.8 °F 53.6 °F 56% 29.75 in 15.0 mi NW 9.2 mph - N/A   Mostly Cloudy
9:00 PM 69.8 °F 53.6 °F 56% 29.76 in 15.0 mi WNW 10.4 mph - N/A   Mostly Cloudy
10:00 PM 68.0 °F 53.6 °F 60% 29.78 in 15.0 mi NW 10.4 mph - N/A   Mostly Cloudy
11:00 PM 66.2 °F 53.6 °F 64% 29.79 in 15.0 mi NW 11.5 mph - N/A   Partly Cloudy